Location: Caltech
(34.1382°N, 118.1253°W)
Time: 04:03:11
(UTC-07:00)

SO-50 - Visible Passes

Search period start: 18 October 2017 00:00
Search period end: 28 October 2017 00:00
Orbit: 619 x 669 km, 64.6° (Epoch: 17 October)

Date Brightness Start Highest point End Pass type
(mag) Time Alt. Az. Time Alt. Az. Time Alt. Az.
20 Oct ? 06:01:53 10° SSE 06:05:22 23° ESE 06:08:52 10° ENE visible
21 Oct ? 06:25:58 10° SSW 06:30:24 64° ESE 06:34:51 10° NE visible
22 Oct ? 05:13:12 10° SE 05:15:38 15° ESE 05:18:05 10° ENE visible
23 Oct ? 05:36:24 10° S 05:40:34 40° ESE 05:44:47 10° NE visible
24 Oct ? 06:01:17 10° SW 06:05:44 71° WNW 06:10:13 10° NNE visible
25 Oct ? 04:48:23 16° SSE 04:50:48 26° ESE 04:54:30 10° NE visible
25 Oct ? 06:27:19 10° WSW 06:31:08 27° NW 06:34:58 10° N visible
26 Oct ? 05:14:49 51° S 05:15:51 74° ESE 05:20:20 10° NNE visible
27 Oct ? 04:03:05 13° ENE 04:03:05 13° ENE 04:03:53 10° ENE visible
27 Oct ? 05:40:48 39° WNW 05:41:09 40° WNW 05:45:23 10° NNE visible
